Regional Weather Roundup
Issued by NWS

Home | Current Version | Previous Version | Text Only | Print | Product List | Glossary On
Versions: 1 2 3 4 5 6 7 8 9 10 11 12 13 14 15 16 17 18 19 20 21 22 23 24 25 26 27 28 29 30 31 32 33 34 35 36 37 38 39 40 41 42 43 44 45 46 47 48 49 50
000
ASUS44 KFWD 250203
RWRTX
NORTH TEXAS HOURLY WEATHER ROUNDUP
NATIONAL WEATHER SERVICE FORT WORTH TX
900 PM CDT SUN MAY 24 2015

NOTE: "FAIR" INDICATES FEW OR NO CLOUDS BELOW 12,000 FEET WITH NO
SIGNIFICANT WEATHER AND/OR OBSTRUCTIONS TO VISIBILITY.

TXZ118-119-250300-
DALLAS/FORT WORTH METROPLEX

CITY           SKY/WX    TMP DP  RH WIND       PRES   REMARKS
DFW AIRPORT    PTCLDY    69  67  93 SE7       29.85R
DALLAS LOVE    PTCLDY    75  66  73 S10       29.85S
FTW MEACHAM    CLEAR     72  67  84 SE9       29.84R
DAL-EXECUTIVE  CLEAR     71  67  87 SE6       29.86R
FTW-ALLIANCE   PTCLDY    70  66  87 S5        29.85R
FTW-SPINKS     CLEAR     72  67  86 CALM      29.87R
ARLINGTON      CLEAR     73  66  78 SE6       29.86R
GRAND PRAIRIE  CLEAR     73  68  86 SE3       29.87R
MESQUITE       CLOUDY    74  69  86 SE7       29.87S
LANCASTER      MOCLDY    73  67  83 SE3       29.88R
$$

TXZ091>094-102>105-117-120-121-131>134-250300-
NORTH CENTRAL TEXAS

CITY           SKY/WX    TMP DP  RH WIND       PRES   REMARKS
SHRMAN/DENISON CLEAR     71  67  88 SE6       29.88R
GAINESVILLE    CLEAR     69  65  88 SE8       29.87S
BOWIE          CLEAR     69  68  98 SE5       29.84R
BRIDGEPORT     CLEAR     71  68  90 SE5       29.86R
DECATUR        CLEAR     69  64  82 SE6       29.85S
DENTON         CLEAR     71  65  81 SE7       29.85R
MCKINNEY       CLOUDY    73  67  81 SE8       29.87R
GREENVILLE     CLOUDY    72  68  88 CALM      29.89R
ROCKWALL       CLOUDY    73  69  86 SE5       29.87R
TERRELL        CLEAR     73  69  87 SE6       29.88R
WAXAHACHIE     CLEAR     72  70  96 CALM      29.87S
CLEBURNE       CLEAR     72  72 100 SE7       29.88R
GRANBURY       CLEAR     74  68  82 SE6       29.86R
$$

TXZ083>090-098>101-113>116-127>130-139>142-154-155-250300-
WESTERN NORTH TEXAS

CITY           SKY/WX    TMP DP  RH WIND       PRES   REMARKS
WICHITA FALLS  PTCLDY    70  64  81 SE9       29.80R
WF-KICKAPOO    PTCLDY    74  65  71 SE9       29.81R
VERNON         CLEAR     75  59  56 SE12      29.79R
ABILENE        CLEAR     74  64  71 SE12      29.83R
BRECKENRIDGE   CLEAR     74  64  73 SE8       29.82R
GRAHAM         CLEAR     71  66  84 SE5       29.82R
MINERAL WELLS  CLEAR     71  67  87 SE6       29.83R
STEPHENVILLE   PTCLDY    72  66  80 SE6       29.88R
COMANCHE       CLEAR     72  67  85 S5        29.86R
COLEMAN        CLEAR     72  67  85 SE5       29.85R
BRADY          CLEAR     73  66  78 SE5       29.86R
$$

TXZ143>147-156>162-174-175-250300-
CENTRAL TEXAS

CITY           SKY/WX    TMP DP  RH WIND       PRES   REMARKS
WACO           CLEAR     75  69  81 S12       29.86R
WACO-TSTC      PTCLDY    73  70  88 SE5       29.87R
WACO-MCGREGOR  CLEAR     73  66  78 S9        29.87R
HILLSBORO      PTCLDY    73  67  81 SE7       29.87R
CORSICANA      LGT RAIN  75  71  87 S7        29.89R
MEXIA          PTCLDY    73  71  94 E9        29.88R
HEARNE         CLEAR     75  69  81 SE7       29.89R
CAMERON        PTCLDY    75  69  83 S5        29.88R
TEMPLE         MOCLDY    75  66  73 SE9       29.86R
KILLEEN        NOT AVBL
KILLEEN-SKYLRK PTCLDY    75  66  73 SE8       29.87R
GATESVILLE     CLEAR     73  70  88 SE6       29.88R
HAMILTON       PTCLDY    73  66  78 SE7       29.87S
LAMPASAS       MOCLDY    76  70  83 SE6       29.86R
$$

TXZ095>097-106>112-122>126-135>138-148>153-164>167-250300-
EAST TEXAS

CITY           SKY/WX    TMP DP  RH WIND       PRES   REMARKS
PARIS          CLOUDY    72  64  78 S3        29.89R
SULPHUR SPRNGS MOCLDY    73  70  88 S7        29.90R
MOUNT PLEASANT CLOUDY    72  68  88 S5        29.91R
GILMER         CLOUDY    70  67  92 CALM      29.90S
MINEOLA        MOCLDY    72  72 100 SE3       29.90R
TYLER          MOCLDY    70  69  97 SE7       29.90R
LONGVIEW       CLOUDY    72  69  90 CALM      29.91R
MARSHALL       CLOUDY    73  71  91 S5        29.94R
ATHENS         PTCLDY    70  70 100 CALM      29.88R
PALESTINE      PTCLDY    73  72  96 SE7       29.91R
JACKSONVILLE   MOCLDY    72  70  93 SE6       29.94R
HENDERSON      CLOUDY    72  70  93 SE5       29.93R
NACOGDOCHES      N/A     72  68  88 S6        29.93R
LUFKIN         CLOUDY    76  70  82 SE7       29.92R
$$

SUPPLEMENTAL OBSERVATIONS (CENTRAL)

CITY           SKY/WX    TMP DP  RH WIND       PRES   REMARKS
$$

SUPPLEMENTAL OBSERVATIONS (WEST)

CITY           SKY/WX    TMP DP  RH WIND       PRES   REMARKS
$$

SUPPLEMENTAL OBSERVATIONS (EAST)

CITY           SKY/WX    TMP DP  RH WIND       PRES   REMARKS
$$

SUPPLEMENTAL OBSERVATIONS ARE A COLLECTION OF AUTOMATED INSTRUMENTS
THAT ARE MAINTAINED BY A VARIETY OF FEDERAL AND STATE AGENCIES.
CERTAIN ELEMENTS...SUCH AS HUMIDITY VALUES AND SUSTAINED WIND
SPEEDS...MAY BE APPROXIMATED.




USA.gov is the U.S. government's official web portal to all federal, state and local government web resources and services.